Location: *
(37.4917°N, 71.5558°E)
Time: 07:19:17
(UTC+00:00)

Cosmos 2228 - Pass Details

Date: 09 April 2020
Orbit: 588 x 619 km, 82.5° (Epoch: 03 June)

Event Time Altitude Azimuth Distance (km) Brightness Sun altitude
Rises 14:13:16 0° 172° (S) 2,825 6.2 -6.5°
Reaches altitude 10° 14:15:31 10° 166° (SSE) 1,932 5.3 -6.9°
Maximum altitude 14:19:36 46° 93° (E) 812 3.3 -7.7°
Drops below altitude 10° 14:23:46 10° 20° (NNE) 1,965 5.6 -8.5°
Sets 14:26:03 0° 14° (NNE) 2,879 6.5 -8.9°
